www.pogodaiklimat.ru

Погода и климат >> Архив погоды >> Россия >> Пермский край >> Лысьва


ПОГОДА в Лысьве

  • Прогноз погоды в Лысьве
  • Монитор погоды в Лысьве
  • Климат города

АРХИВ ПОГОДЫ в Лысьве

Время (UTC), дата Ветер
(напр.,м/с)
 
Видим.   Явления Облачность Т
(С)
Тd
(С)
f
(%)
Тe
(С)
Тes
(С)
Комфортность P
(гПа)
Po
(гПа)
Тmin
(С)
Tmax
(С)
R
(мм)
R24
(мм)
S
(см)
21 12.10 ЮВ 1 20 км 10/10 600 м
[Sc]
+7.9 +1.1 62 +7 +7 1018.7 991.2
00 13.10 В 1 20 км 10/10 600 м
[Sc]
+7.2 +1.4 67 +7 +7 1017.7 990.1
03 13.10 штиль 0 50 км 10/10 600 м
[Sc]
+5.6 +2.0 78 +5 +5 1017.0 989.3 +5.4
06 13.10 ЮВ 1 20 км 10/0 2000 м
[As trans]
+9.5 +3.7 67 +9 +10 1016.5 989.2
09 13.10 Ю 2 50 км 10/0 2000 м
[Ac As]
+11.9 +1.9 50 +11 +12 1015.5 988.4
12 13.10 ЮВ 2 50 км 6/0 2000 м
[Ac As Ci fib]
+12.2 +2.0 50 +12 +12 1015.0 988.0
15 13.10 ЮВ 1 20 км 4/0 2000 м
[Ac As]
+8.4 +2.2 65 +8 +8 1015.8 988.4 +13.1
18 13.10 ЮВ 1 20 км ясно +5.2 +1.4 76 +4 +4 1015.8 988.1
21 13.10 штиль 0 20 км ясно +1.8 +0.5 91 +1 +1 1016.0 987.9
00 14.10 штиль 0 20 км ясно +0.4 -0.5 94 -1 -1 1015.9 987.7
03 14.10 ЮВ 1 20 км 3/0
[Ci sp]
-1.0 -1.5 96 -3 -3 1016.6 988.2 -1.5 0.0
06 14.10 штиль 0 20 км 3/0
[Ci fib]
+5.4 +1.2 74 +5 +7 1016.2 988.5
09 14.10 З 1 20 км ясно +11.6 +2.6 54 +12 +15 1014.7 987.6
12 14.10 З 1 20 км ясно +12.7 +0.8 44 +13 +14 1014.3 987.3
15 14.10 штиль 0 10 км ясно +5.1 +1.6 78 +4 +4 1015.3 987.6 +13.1 0.0
18 14.10 Ю 1 10 км ясно +1.3 -0.1 90 -1 -1 1015.3 987.2
21 14.10 штиль 0 10 км ясно +0.1 -0.7 94 -1 -1 1014.8 986.6
00 15.10 штиль 0 10 км ясно -0.7 -1.3 96 -2 -2 1014.2 985.9
03 15.10 штиль 0 50 км 6/0 2000 м
[Ac und Ci fib]
-0.8 -1.5 95 -2 -2 1013.6 985.3 -1.0 0.0
06 15.10 штиль 0 20 км 9/3 600 м
[Sc Ci]
+5.6 +1.7 76 +5 +6 1011.9 984.3
09 15.10 Ю 3 20 км 10/0 2000 м
[Ac cast Cs]
+12.3 +0.6 45 +11 +13 1010.0 983.1
12 15.10 ЮВ 3 20 км 10/0 2000 м
[Ac As]
+10.8 +1.0 51 +9 +9 1008.9 981.9
15 15.10 ЮВ 3 20 км 10/9 600 м
[Sc Ac As]
+10.0 +1.1 54 +8 +8 1008.8 981.8 +12.7 0.0
18 15.10 ЮВ 3
{10}
20 км 10/10 600 м
[Sc]
+9.4 +1.5 58 +7 +7 1008.9 981.8
21 15.10 ЮВ 2 10 км слабый дождь 10/10 600 м
[Sc]
+7.4 +3.5 76 +5 +5 1009.0 981.7
00 16.10 В 2 4000 м дождь 10/10 600 м
[Sc]
+5.8 +4.5 91 +3 +3 1009.0 981.5
03 16.10 ЮВ 3 10 км слабый дождь 10/10 600 м
[Sc]
+5.9 +4.6 91 +3 +3 1009.6 982.1 +5.8 5
06 16.10 ЮВ 4
{11}
10 км слабый дождь 10/10 600 м
[Sc]
+7.6 +6.2 91 +4 +4 1009.8 982.5
09 16.10 ЮВ 5
{10}
10 км слабый дождь 10/10 600 м
[Sc]
+8.4 +5.8 84 +5 +5 1010.7 983.5
12 16.10 ЮВ 4
{11}
20 км в посл. час дождь 10/10 600 м
[Sc]
+8.1 +4.9 80 +5 +5 1012.1 984.8
15 16.10 В 4
{10}
20 км 10/10 600 м
[Sc]
+7.6 +3.1 73 +4 +4 1012.1 984.7 +8.6 4
18 16.10 ЮВ 3
{11}
20 км 10/10 600 м
[Sc]
+7.3 +2.2 70 +5 +5 1012.8 985.4
21 16.10 ЮВ 3
{11}
20 км слабый дождь 10/10 600 м
[Sc]
+6.9 +2.0 71 +4 +4 1012.6 985.2
00 17.10 ЮВ 3 20 км в посл. час ливневой дождь 10/10 600 м
[Sc]
+7.2 +0.9 64 +5 +5 1010.9 983.5
03 17.10 ЮВ 2 20 км 10/10 600 м
[Sc]
+7.4 +1.2 65 +6 +6 1009.6 982.3 +6.6 0.3
06 17.10 В 1 20 км 10/8 600 м
[Sc Ac und]
+8.3 +1.8 64 +8 +8 1008.9 981.7
09 17.10 ЮВ 3 20 км 9/8 600 м
[Sc Ac As]
+9.5 +1.9 59 +8 +8 1006.4 979.4
12 17.10 Ю 1 20 км 8/4 600 м
[Sc Ac As]
+11.6 +2.8 55 +12 +12 1003.5 976.7
15 17.10 Ю 2 20 км в посл. час дождь 10/10 600 м
[Sc]
+9.6 +3.4 65 +8 +8 1003.0 976.1 +12.2 0.0
18 17.10 Ю 3 10 км слабый дождь 10/10 600 м
[Sc]
+9.2 +2.6 63 +7 +7 1001.3 974.4
21 17.10 Ю 3 10 км слабый дождь 10/10 600 м
[Sc]
+7.0 +5.7 91 +4 +4 1000.7 973.6
00 18.10 штиль 0 10 км слабый дождь 10/10 600 м
[Sc]
+5.8 +4.6 92 +5 +5 1000.9 973.7
03 18.10 З 3 20 км {дождь} 10/10 600 м
[Sc]
+4.7 +3.5 92 +1 +1 1001.8 974.4 +4.7 6
06 18.10 ЮЗ 2 20 км {дождь, морось} 9/9 600 м
[Sc]
+3.9 +2.2 89 +1 +1 1003.2 975.7 +3.2
09 18.10 ЮЗ 3 10 км слабая морось {ливн. осадки} 10/8 300 м
[Cb cap Ac und]
+4.5 +2.3 86 +1 +1 1003.3 975.8
12 18.10 ЮЗ 3 50 км в посл. час ливневой дождь {морось} 9/6 300 м
[Cb cap Ac und]
+4.6 +2.9 89 +1 +1 1003.0 975.6
15 18.10 Ю 3 10 км слабый ливневой дождь 10/6 300 м
[Cb cap Ac und]
+4.0 +2.8 92 0 0 1002.8 975.3 +5.2 0.5
18 18.10 Ю 3 10 км {ливн. осадки} 10/10 600 м
[Sc diur, vesp]
+4.1 +2.6 90 0 0 1001.7 974.3
21 18.10 Ю 3 10 км 10/10 600 м
[Sc]
+4.2 +2.3 87 +1 +1 1000.2 972.8
00 19.10 Ю 3 10 км 10/10 600 м
[Sc]
+3.9 +2.3 89 0 0 998.9 971.5
03 19.10 Ю 4 10 км 10/10 600 м
[Sc]
+4.2 +2.8 91 -0 -0 996.9 969.6 +3.8 0.0
06 19.10 Ю 4
{10}
10 км слабый дождь {морось} 10/10 600 м
[Sc]
+4.8 +3.8 93 0 0 994.6 967.5
09 19.10 Ю 5
{11}
10 км слабый дождь 10/10 600 м
[Sc]
+6.2 +5.2 93 +2 +2 991.5 964.6
12 19.10 Ю 5
{10}
20 км {ливн. осадки, дождь} 10/9 300 м
[Cb cap Ac trans]
+5.2 +3.6 89 +1 +1 991.8 964.7
15 19.10 З 4
{12}
10 км слабый дождь {ливн. осадки} 10/10 600 м
[Sc]
+2.9 +1.4 90 -2 -2 994.1 966.8 +6.6 5

 

Местоположение метеостанции Лысьва (Пермский край, Россия): широта 58.12 долгота 57.78 высота над уровнем моря 226 м.

В архиве по умолчанию представлена погода в Лысьве за последнюю неделю. Архивные данные за месяц целиком и за предыдущие месяцы, начиная с января 2011 года, Вы можете получить, выбрав интересующий диапазон дат из раскрывающегося списка и нажав кнопку "Ввод!".

Внимание! Время в таблицах - всемирное. Для получения местного времени необходимо прибавить поправку, которая в Лысьве равна 5 ч.

Смотрите также архив погоды в соседних городах и на ближайших метеорологических станциях:

Погода в Перми (Пермский край, Россия) (67 км)
Погода в Бисере (Пермский край, Россия) (77 км)
Погода в Добрянке (Пермский край, Россия) (86 км)
Погода в Губахе (Пермский край, Россия) (88 км)
Погода в Шамарах (Свердловская область, Россия) (90 км)
Погода в Кунгуре (Пермский край, Россия) (93 км)
Погода в Висиме (Свердловская область, Россия) (115 км)
Погода в Чермозе (Пермский край, Россия) (117 км)
Погода в Кушве (Свердловская область, Россия) (118 км)
Погода в Нижнем Тагиле (Свердловская область, Россия) (138 км)

Пояснения к столбцам:

Ветер - указаны скорость ветра в м/с - средняя за 10 мин, порывы в срок и между сроками (в фигурных скобках) и направление, откуда дует ветер: С - северный, СВ - северо-восточный, В - восточный, ЮВ - юго-восточный, Ю - южный, ЮЗ - юго-западный, З - западный, СЗ - северо-западный.
Видимость - горизонтальная дальность видимости в метрах или километрах. При видимости от 1 до 10 км при отсутствии осадков обычно наблюдается дымка, при ухудшении видимости до 1 км и менее - туман. В сухую погоду видимость может ухудшаться дымом, пылью или мглою.
Явления - указаны атмосферные явления, наблюдавшиеся в срок или в последний час перед сроком; фигурными скобками обозначены явления, наблюдавшиеся между сроками (за 1-3 часа до срока); квадратными скобками обозначены град или гололедные отложения с указанием их диаметра в мм.
Облачность - указаны через наклонную черту общая и нижняя облачность в баллах и высота нижней границы облаков в метрах; квадратными скобками обозначены формы облаков: Ci - перистые, Cs - перисто-слоистые, Cc - перисто-кучевые, Ac - высококучевые, As - высокослоистые, Sc - слоисто-кучевые, Ns - слоисто-дождевые, Cu - кучевые, Cb - кучево-дождевые. Подробнее классификацию облаков см. в Атласе облаков (PDF).
T - Температура воздуха - температура, измеренная на высоте 2 м над землей.
Td - Температура точки росы - температура, при понижении до которой содержащийся в воздухе водяной пар достигнет насыщения.
f - Относительная влажность воздуха - влажноcть воздуха, измеренная на высоте 2 м над землей.
Te - Эффективная температура - температура, которую ощущает одетый по сезону человек в тени. Характеристика душности погоды. При расчете учитывается влияние влажности воздуха и скорости ветра на теплоощущения человека.
Tes - Эффективная температура на солнце - температура, которую ощущает человек, с поправкой на солнечный нагрев. Характеристика знойности погоды. Зависит от высоты солнца над горизонтом, облачности и скорости ветра. Ночью, в пасмурную погоду, а также при ветре 12 м/с и более поправка равна нулю.
P - Атмосферное давление - приведенное к уровню моря атмосферное давление.
Po - Атмосферное давление - измеренное на уровне метеостанции атмосферное давление.
Tmin - Минимальная температура - минимум температуры воздуха на высоте 2 м над землей.
Tmax - Максимальная температура - максимум температуры воздуха на высоте 2 м над землей.
R - Количество осадков - Количество выпавших осадков за период времени, мм. При наведении курсора мыши на число - период времени, за который выпало указанное количество осадков.
R24 - Количество осадков - Количество выпавших осадков за 24 часа, мм.
S - Снежный покров - Высота снежного покрова, см. При наведении курсора мыши на число - состояние снежного покрова и степень покрытия местности в баллах.